Regional Weather Roundup
Issued by NWS

Home | Current Version | Previous Version | Graphics & Text | Print | Product List | Glossary On
Versions: 1 2 3 4 5 6 7 8 9 10 11 12 13 14 15 16 17 18 19 20 21 22 23 24 25 26 27 28 29 30 31 32 33 34 35 36 37 38 39 40 41 42 43 44 45 46 47 48 49 50
424
ASUS43 KLOT 230103
RWRIL

ILLINOIS REGIONAL WEATHER ROUNDUP
NATIONAL WEATHER SERVICE CHICAGO/ROMEOVILLE IL
800 PM CDT TUE MAY 22 2018

NOTE: "FAIR" INDICATES FEW OR NO CLOUDS BELOW 12,000 FEET WITH NO
SIGNIFICANT WEATHER AND/OR OBSTRUCTIONS TO VISIBILITY.

* THESE STATIONS ARE NOT UNDER NWS QUALITY CONTROL. THEY ALSO MAY NOT
  REPORT WEATHER SUCH AS PRECIPITATION OR FOG.

ILZ001-002-007-009-015-016-024-230200-
NORTHWEST ILLINOIS

CITY           SKY/WX    TMP DP  RH WIND       PRES   REMARKS
MOLINE         FAIR      73  60  63 NE6       30.03R
STERLING*      FAIR     N/A N/A N/A MISG        N/A
SAVANNA*       FAIR      69  60  72 N5        30.05R
$$

ILZ003-004-008-010-011-017-018-230200-
NORTH CENTRAL ILLINOIS

CITY           SKY/WX    TMP DP  RH WIND       PRES   REMARKS
ROCKFORD       FAIR      66  57  72 N8        30.06S
FREEPORT*      FAIR      65  60  81 N3        30.07S
ROCHELLE*      FAIR      66  61  84 NE5       30.06R
DE KALB*       FAIR      64  60  87 NE6       30.07R
PERU*          CLOUDY    72  63  74 NE6       30.05R
$$

ILZ005-006-012>014-019>023-230200-
NORTHEAST ILLINOIS

CITY           SKY/WX    TMP DP  RH WIND       PRES   REMARKS
CHICAGO-OHARE  FAIR      62  53  72 E7        30.05R
CHICAGO-MIDWAY FAIR      58  51  78 NE7       30.06R
AURORA         FAIR      65  60  84 N6        30.05R
LANSING*       FAIR      55  53  94 NE5       30.06R
JOLIET*        FAIR      67  61  79 NE5       30.05R
WAUKEGAN       FAIR      54  50  86 CALM      30.06R
DUPAGE AIRPORT FAIR      64  59  83 NE7       30.04R
KANKAKEE*      FAIR      64  57  78 NE7       30.06R
WHEELING       FAIR      61  54  77 NE5       30.07R
MORRIS*        FAIR      67  61  78 CALM      30.03S
ROMEOVILLE*    FAIR      63  57  81 E6        30.05R
NORTHERLY ISL    N/A     49  47  93 NE3         N/A
$$

LMZ740>746-230200-
SOUTHERN LAKE MICHIGAN

STATION/POSITION SKY/WX   TEMP    WIND        PRES    VSBY  WAVE
                          AIR SEA DIR/SP/G                  HT/PER
                          (F)     (DEG/KT/KT) (MB)    (MI)  (FT/S)
WILMETTE HARBOR            49 49  190/  2/  2   N/A           0
HARRISON CRIB              51      70/  2/  2   N/A
BURNHAM HARBOR             49      70/  2/  4   N/A
CALUMET HARBOR             50      40/  4/  6 1017.6R
BURNS HARBOR               52      60/  7/  9 1018.3S
MICHIGAN CITY              52      50/  8/ 10   N/A
MICHIGAN CITY 6N           52 54   90/  6/  8   N/A           1
ST. JOSEPH                 51 53   40/  6/  8 1018.5R         1/ 3
$$

ILZ025>027-034>036-040-047-049-050-058-095>099-230200-
WEST-CENTRAL ILLINOIS

CITY           SKY/WX    TMP DP  RH WIND       PRES   REMARKS
QUINCY         CLEAR     78  60  53 SE5       30.02R
GALESBURG*     FAIR      70  60  70 N7        30.05R
MACOMB*        CLEAR     73  61  65 NE6       30.05R
JACKSONVILLE*  CLEAR     75  61  61 N3        30.02R
PITTSFIELD*    CLEAR     77  67  69 CALM      30.04R
$$

ILZ028>032-037-038-041>044-048-051>054-059>061-230200-
CENTRAL ILLINOIS

CITY           SKY/WX    TMP DP  RH WIND       PRES   REMARKS
PONTIAC        FAIR      70  65  85 N7        30.05R
BLOOMINGTON    MOCLDY    73  59  61 N13       30.04R
DECATUR        FAIR      75  57  53 N8        30.01R
PEORIA         FAIR      74  60  61 N3        30.03R
LACON*         FAIR      71  61  71 N5        30.03R
LINCOLN*       FAIR      76  60  56 N6        30.02R
SPRINGFIELD    FAIR      77  61  57 N6        30.02R
TAYLORVILLE    FAIR      76  60  57 N6        30.02R
$$

ILZ033-039-045-046-055>057-062-063-230200-
EAST-CENTRAL ILLINOIS

CITY           SKY/WX    TMP DP  RH WIND       PRES   REMARKS
CHAMPAIGN      FAIR      75  57  53 N13       30.02R
DANVILLE*      FAIR      72  60  65 N8        30.00R
RANTOUL*       FAIR      76  59  55 N8        30.02R
MATTOON        FAIR      76  60  57 N9        29.99R
PARIS*         FAIR      76  59  56 N3        30.01R
$$

ILZ079-100>102-230200-
SOUTHWEST ILLINOIS

CITY           SKY/WX    TMP DP  RH WIND       PRES   REMARKS
BELLEVILLE     CLEAR     80  65  59 N3        29.99S HX  82
CAHOKIA*       CLEAR     79  65  62 E3        30.00R HX  81
SPARTA*        CLEAR     78  69  73 CALM      30.02R HX  80
$$

ILZ064>066-069>071-074>076-080>082-084>086-088>090-092>094-230200-
SOUTH-CENTRAL ILLINOIS

CITY           SKY/WX    TMP DP  RH WIND       PRES   REMARKS
CARBONDALE     FAIR      77  65  66 CALM      30.00R
CAIRO*         MOCLDY    81  68  63 CALM      29.99R HX  84
EFFINGHAM*     FAIR      79  60  51 W5        30.01S HX  80
MARION         FAIR      73  66  76 CALM      30.00F
MT. VERNON       N/A     74  66  76 CALM      30.00R
CENTRALIA*     CLEAR     80  66  61 NW3       30.00R HX  82
SALEM*         FAIR      81  62  51 CALM      30.00R HX  82
METROPOLIS*    FAIR      80  70  72 CALM      30.00R HX  82
$$

ILZ067-068-072-073-078-083-087-091-230200-
SOUTHEAST ILLINOIS

CITY           SKY/WX    TMP DP  RH WIND       PRES   REMARKS
LAWRENCEVILLE  FAIR      82  63  52 N5        29.98R HX  83
FLORA*         FAIR      82  63  52 NW5       30.00R HX  83
FAIRFIELD*     FAIR      78  63  61 CALM      29.99S
HARRISBURG*    FAIR      77  68  72 W3        29.99S
ROBINSON*      FAIR      76  64  64 CALM      29.99R
CARMI*         FAIR      79  63  57 NW5       29.98S HX  80
$$

ABBREVIATIONS USED IN REMARKS
   TC - TEMPERATURE IN CELSIUS
  WCI - WIND CHILL INDEX
   HX - HEAT INDEX
  VSB - VISIBILITY
$$





USA.gov is the U.S. government's official web portal to all federal, state and local government web resources and services.